SCP
0 0 0 0 0 0 0 0 0 0 0 0 0 0 0 0 -0 0 0 0 0 0 0 0 0 0 0 0 -0 -0 0 -0 0 0 0 0 0 0 0 0 0 0 0 0 0 0 0 1 0 0 0 0 0 -0
0 0 0 0 0 0 0 0 0 0 0 0 0 0 0 0 0 0 0 0 0 0 0 0 0 0 0 0 -0 -0 0 -0 0 0 0 0 0 0 0 0 0 0 0 1 0 1 -0 0 0 -0 0 0 -0 -0
0 0 0 0 0 0 0 0 0 0 0 0 0 0 0 0 0 0 0 0 0 0 0 0 0 0 -0 0 0 -0 0 -0 0 0 0 0 0 0 0 0 0 0 0 0 0 0 0 0 0 0 0 0 0 0
0 0 0 0 0 0 0 0 0 0 0 0 0 0 0 0 0 0 0 0 0 0 0 0 0 0 0 -0 0 0 -0 -0 0 0 0 0 0 0 0 -0 0 0 0 0 0 0 0 0 0 0 0 0 0 0
0 -0 0 0 0 0 0 0 0 0 0 0 0 0 0 0 0 0 0 0 0 0 0 0 0 0 0 0 0 0 0 0 0 0 0 0 0 0 0 0 0 0 0 0 0 0 0 0 0 0 0 0 0 0
0 0 -0 0 0 0 0 0 0 0 0 0 0 0 0 0 0 0 0 0 0 0 0 0 0 0 0 0 0 0 0 -0 0 0 0 0 0 0 0 0 0 0 0 0 0 0 0 0 0 0 0 0 0 0
0 0 0 -0 0 0 0 0 0 0 0 0 0 0 0 0 0 0 0 0 -0 0 0 0 0 0 0 0 0 -0 -0 0 0 0 0 -0 0 0 0 0 0 0 0 0 -0 -0 0 0 0 0 0 0 0 0
-0 0 -0 -0 0 0 0 0 0 0 0 0 0 0 0 0 0 0 0 0 0 0 0 0 0 0 0 0 -0 -0 0 -0 0 -0 -0 0 0 0 0 0 0 0 0 0 0 0 0 0 0 0 0 0 0 0
0 0 -0 0 0 0 0 0 0 0 0 0 0 -0 0 0 0 0 0 0 0 0 0 0 0 0 0 0 0 -0 -0 -0 0 -0 -0 -0 0 -0 0 0 0 0 -0 0 0 0 0 0 0 0 0 0 0 0
0 0 0 0 0 0 0 0 0 0 0 0 0 0 0 0 0 0 0 0 0 0 0 0 0 0 0 0 0 0 0 0 0 0 0 0 0 0 0 0 0 0 -0 -0 0 0 0 0 0 0 0 0 0 0
0 0 0 0 0 0 0 0 0 0 0 0 -0 0 0 0 0 0 0 0 0 0 0 0 0 0 0 0 0 0 0 0 0 0 0 0 0 0 -0 0 0 0 -0 -0 -0 -0 -0 0 0 0 0 0 0 0
0 0 0 0 0 -0 0 0 0 0 0 0 0 0 0 0 0 0 0 0 0 0 0 0 0 0 0 0 0 0 0 0 0 0 0 0 0 0 0 0 0 0 0 0 0 0 0 0 0 0 0 0 0 0
0 0 0 0 0 0 0 0 0 0 0 0 0 0 0 0 0 0 0 0 0 0 0 0 0 0 0 0 0 0 0 0 0 0 0 0 0 0 0 0 0 0 0 0 0 0 -0 -0 -0 -0 0 0 0 0
0 0 0 0 0 0 0 0 0 0 0 0 0 0 0 0 0 0 0 0 0 -0 -0 0 0 0 0 0 0 0 0 0 0 0 0 0 0 0 0 0 0 0 0 0 0 0 0 0 -0 -0 -0 0 0 0
0 0 0 0 0 0 0 0 0 0 0 0 0 0 0 0 0 0 0 0 0 -0 -0 -0 0 0 0 0 0 0 0 0 0 0 0 0 0 0 0 0 0 0 0 0 0 0 0 0 0 -0 -0 -0 -0 0
0 0 0 0 0 0 0 0 0 0 0 0 0 0 -0 0 0 0 0 0 0 -0 0 -0 0 0 0 0 0 0 0 0 0 0 0 0 0 0 0 0 0 0 0 0 0 0 0 0 0 0 -0 -0 -0 -0
0 0 0 0 0 0 0 0 0 0 0 0 0 0 -0 -0 -0 0 0 0 0 -0 -0 0 0 0 0 0 0 0 0 0 0 0 0 0 0 0 0 0 0 0 0 0 0 0 0 0 0 0 0 0 0 -0
0 0 0 0 0 0 0 0 0 0 0 0 0 0 -0 -0 0 0 0 -0 0 0 0 0 0 0 0 0 0 0 0 0 0 0 0 0 0 0 0 0 0 0 0 0 0 0 0 0 0 0 0 0 0 0
0 0 0 0 0 0 0 0 0 0 0 0 0 0 -0 -0 0 0 0 0 0 0 0 0 0 0 -0 -0 0 0 0 0 0 0 0 0 0 0 0 0 0 0 0 0 0 0 0 0 0 0 0 0 0 0
0 0 0 0 0 0 0 0 0 0 0 0 0 -0 -0 0 -0 0 0 0 0 0 0 0 0 0 0 0 0 0 0 0 0 0 0 0 0 0 0 0 0 0 0 0 0 0 0 0 0 0 0 0 0 0
0 0 0 0 0 0 0 0 0 0 0 0 0 -0 -0 0 -0 -0 0 0 0 -0 0 0 0 0 0 0 0 0 0 0 0 0 0 0 0 0 0 0 0 0 0 0 0 0 0 0 0 0 0 0 0 0
0 0 0 0 0 0 0 0 0 0 0 0 0 0 0 0 0 -0 0 -0 0 -0 0 -0 0 0 0 0 0 0 0 0 0 0 0 0 0 0 0 0 0 0 0 0 0 0 0 0 0 0 0 0 0 0
0 0 0 0 0 0 0 0 0 0 0 0 -0 0 -0 -0 0 -0 0 0 0 0 0 0 0 0 0 0 0 0 0 0 0 0 0 0 0 0 0 0 0 0 0 0 0 0 0 0 0 0 0 0 0 0
0 0 0 0 0 0 0 0 0 0 0 -0 0 -0 0 0 0 0 -0 0 0 -0 0 0 0 0 0 0 0 0 0 0 -0 0 0 0 0 0 0 0 0 0 0 0 0 0 0 0 0 0 0 0 0 0
0 0 0 0 0 0 0 0 0 0 0 0 0 0 0 0 -0 0 -0 0 0 0 0 0 0 0 0 0 0 0 0 0 0 0 0 0 0 0 0 0 0 0 0 0 0 0 0 0 0 0 0 0 0 0
0 0 0 0 0 0 0 0 0 0 0 0 -0 -0 0 0 -0 0 0 0 0 0 0 0 0 0 0 0 0 0 0 0 0 0 0 0 0 0 0 0 0 0 0 0 0 0 0 0 0 0 0 0 0 0
0 0 0 0 0 0 0 0 0 0 0 0 -0 0 0 -0 0 -0 0 0 0 0 0 0 0 0 0 0 0 0 0 0 0 0 0 0 0 0 0 0 0 0 0 0 0 0 0 0 0 0 0 0 0 0
0 0 0 0 0 0 0 0 0 0 0 0 -0 -0 -0 0 -0 -0 0 0 -0 -0 0 0 0 0 0 0 0 0 0 0 0 0 0 0 0 0 0 0 0 0 0 0 0 0 0 0 0 0 -0 0 0 0
0 0 0 0 0 0 0 0 0 0 0 0 -0 -0 -0 0 0 -0 -0 -0 -0 -0 -0 0 -0 0 0 0 0 0 0 0 0 0 0 0 0 0 0 0 0 0 0 0 0 0 0 0 0 0 0 0 0 0
0 0 0 0 0 0 0 0 0 0 0 0 0 -0 0 -0 0 -0 0 -0 -0 -0 -0 -0 -0 0 0 0 0 0 0 0 0 0 0 0 0 0 0 0 0 0 0 0 0 0 0 0 0 0 0 0 0 0
0 0 0 0 -0 -0 -0 -0 -0 0 0 0 0 0 0 0 0 0 0 0 -0 -0 -0 -0 0 0 0 0 0 0 0 0 0 0 0 0 0 0 0 0 0 0 0 0 0 0 0 0 0 0 0 0 0 0
0 0 0 -0 -0 -0 -0 -0 -0 -0 0 0 0 0 0 0 0 0 -0 -0 0 -0 0 0 0 0 0 0 0 0 0 0 0 0 0 0 0 0 0 0 0 0 0 0 0 0 0 0 0 0 0 0 0 0
0 -0 0 -0 0 0 0 0 0 -0 0 0 0 0 0 0 0 0 0 -0 -0 0 0 0 0 0 0 0 0 0 0 0 0 0 0 0 0 0 0 0 0 0 0 0 0 0 0 0 0 0 0 0 0 0
Wind_Speed_500mb
43 42 45 42 37 34 33 36 37 37 39 38 27 26 25 18 15 18 25 31 20 13 9 16 19 16 14 22 8 18 11 14 10 4 7 7 7 12 7 11 12 6 3 6 6 4 1 50 15 11 10 30 29 35
40 41 46 42 43 39 35 33 35 36 35 37 30 24 23 22 13 15 10 18 12 16 18 12 13 10 21 22 21 17 3 5 7 6 7 6 5 5 9 10 28 7 7 7 9 9 19 46 42 39 28 26 35 33
36 41 40 43 45 45 41 37 33 34 35 33 31 28 25 22 18 7 17 34 30 13 22 6 9 19 12 17 14 3 9 4 7 2 9 4 5 4 8 4 15 35 44 7 12 19 25 45 33 32 30 27 26 23
33 36 39 39 43 47 40 44 40 35 32 32 30 28 27 24 23 8 9 12 19 16 8 4 12 14 17 12 13 10 13 11 1 7 4 5 6 10 5 14 10 8 13 9 17 42 17 32 38 37 29 23 21 15
33 33 37 40 41 46 47 52 42 39 36 30 30 28 25 23 16 13 5 9 14 6 8 17 10 13 13 13 14 13 5 9 14 9 7 7 9 7 4 9 17 29 16 9 6 27 21 24 40 30 27 22 28 28
34 35 35 39 43 46 51 56 55 44 36 32 29 30 26 22 16 5 6 12 7 4 7 5 5 9 12 9 15 13 15 15 21 14 8 9 14 21 4 6 17 28 26 24 14 32 29 27 32 23 29 30 30 31
37 36 36 39 42 45 50 53 52 40 31 29 28 31 30 21 14 7 8 9 20 7 6 7 4 2 7 6 12 17 20 21 16 11 9 12 12 23 6 5 13 16 23 24 31 33 19 27 36 40 36 30 30 28
41 38 35 38 41 43 47 51 41 36 31 28 32 34 22 20 4 6 11 10 13 9 10 5 4 2 3 2 7 8 11 12 11 11 11 13 10 12 6 12 9 13 20 28 50 38 32 39 33 33 43 45 46 45
44 43 37 35 38 41 44 47 44 37 30 36 31 20 5 4 1 9 24 26 12 11 8 5 3 2 6 4 6 5 5 1 7 1 1 2 5 0 7 14 8 9 15 24 38 46 47 44 44 33 30 38 38 41
44 41 37 33 33 38 43 50 46 35 34 31 20 8 5 5 11 38 6 0 6 9 10 9 3 2 13 6 2 1 4 4 3 4 6 4 3 10 9 10 6 5 13 18 26 34 39 46 49 44 41 38 39 46
40 37 34 31 30 35 41 45 40 36 29 16 12 5 15 22 17 4 6 10 12 9 14 14 18 12 11 7 5 13 3 2 1 6 7 6 4 7 16 12 12 9 6 7 13 21 28 31 37 37 34 36 30 31
39 35 33 33 32 39 45 43 41 36 25 22 26 37 13 6 5 9 6 3 2 6 8 7 23 24 12 7 6 12 5 5 9 23 6 5 5 24 17 20 25 13 8 5 18 27 30 28 30 28 26 18 16 22
37 38 36 37 35 38 42 39 39 39 37 13 3 5 7 9 6 10 12 5 4 10 12 16 15 16 9 13 9 5 6 8 9 9 9 5 36 25 13 10 20 25 21 13 7 14 19 28 27 28 27 23 13 6
36 42 38 36 31 35 41 33 39 38 12 5 8 8 9 9 9 2 11 11 24 20 20 24 14 19 13 10 11 8 7 6 6 3 5 12 34 32 20 11 15 6 16 21 17 11 9 15 27 28 21 18 17 15
35 33 38 35 30 35 31 32 38 25 7 8 10 8 12 21 6 18 8 8 3 26 38 26 14 17 11 7 7 3 5 6 4 1 7 39 32 26 18 13 11 6 3 6 12 19 13 7 9 22 36 36 26 16
31 34 38 27 24 23 27 34 32 15 6 9 13 12 24 28 13 15 14 3 16 31 29 16 10 7 9 7 11 11 4 5 4 7 46 46 34 25 17 15 10 4 3 3 7 14 17 14 13 12 8 13 21 33
27 37 31 23 24 21 26 32 15 7 10 10 17 24 38 45 47 27 29 9 14 25 7 7 6 8 6 5 7 8 9 7 20 40 47 44 36 26 19 15 11 6 4 7 11 12 19 15 11 16 23 18 17 4
33 30 28 21 20 20 26 11 7 8 14 21 16 28 31 38 42 24 13 30 19 18 10 4 4 4 5 7 3 4 28 31 41 46 45 34 27 23 22 16 14 9 8 13 13 8 22 21 20 19 21 21 17 16
30 34 30 18 16 12 7 6 8 9 21 22 30 40 37 47 46 28 29 18 31 12 7 6 8 6 6 18 12 15 35 36 47 43 30 25 25 24 17 14 15 17 19 21 18 14 8 16 17 15 19 25 16 11
30 25 19 19 15 5 7 7 9 12 12 13 30 37 32 34 46 39 28 23 32 29 12 9 6 10 21 28 13 11 22 27 33 35 35 34 24 24 19 15 13 12 22 28 26 20 12 18 22 21 8 7 8 7
26 28 20 22 18 16 10 7 11 12 18 15 38 28 20 37 36 28 12 1 11 14 8 7 24 8 11 11 7 11 18 15 12 23 30 38 17 27 26 15 10 4 15 16 9 4 9 4 4 5 15 2 9 5
19 20 22 21 11 8 11 14 11 15 13 21 25 14 15 14 20 16 5 9 11 20 31 28 9 29 21 13 13 12 19 15 15 16 15 16 22 24 12 18 16 8 7 7 1 4 11 10 8 18 9 12 10 5
16 14 10 11 10 10 9 9 8 8 8 11 21 9 7 14 11 25 10 6 10 17 16 14 27 25 27 20 16 13 11 22 13 14 13 8 18 19 9 11 10 8 4 1 6 6 5 11 11 6 3 9 9 14
14 10 9 8 15 6 6 7 9 9 9 10 7 8 3 5 4 14 6 4 3 16 21 28 36 31 20 23 15 11 11 20 11 18 15 7 13 18 15 10 9 7 6 8 5 3 5 5 8 13 16 7 12 12
7 10 9 9 11 8 7 6 8 8 8 10 20 13 9 16 5 4 4 6 14 18 31 37 30 24 25 20 26 22 15 17 18 29 12 16 6 13 15 14 15 15 8 11 9 10 8 6 9 8 11 14 13 18
6 14 16 15 9 9 8 5 8 8 6 7 7 17 14 3 5 5 5 18 22 25 38 35 34 29 19 25 17 35 25 12 11 15 19 15 8 4 3 9 10 19 14 11 10 6 6 8 10 12 17 18 16 18
7 13 15 19 9 7 9 13 14 8 6 6 6 4 7 4 2 9 21 13 19 47 30 25 26 25 16 11 7 11 28 13 12 24 18 10 4 2 1 2 9 16 10 7 4 5 5 6 9 12 13 14 18 20
16 11 18 18 15 17 6 6 6 7 7 4 7 6 7 7 7 8 11 16 26 21 23 26 21 16 13 20 23 24 14 11 12 12 8 7 8 7 12 11 9 11 12 13 12 8 6 9 13 10 11 15 15 21
15 19 23 23 15 15 20 14 13 19 13 8 2 4 19 26 37 37 18 21 24 25 31 24 31 25 25 25 18 28 17 16 17 8 5 11 21 18 14 9 5 5 4 2 3 6 4 13 7 3 12 22 24 26
23 29 15 17 12 13 18 26 22 23 24 25 31 37 42 36 21 18 4 19 14 23 21 28 32 29 35 33 28 21 18 18 9 11 10 3 7 20 14 12 8 2 6 8 13 12 6 10 12 21 27 33 38 33
11 11 14 20 10 19 32 37 35 36 41 49 44 51 50 37 18 13 6 7 10 11 19 25 27 20 29 37 36 29 26 22 24 20 10 8 9 9 8 9 8 6 6 4 5 11 9 13 19 25 28 27 33 41
16 18 10 7 8 16 13 15 10 22 32 30 39 41 23 16 8 6 10 11 7 8 8 3 15 23 21 27 26 21 16 35 30 22 14 16 13 9 7 9 9 8 5 4 5 7 11 15 25 22 27 31 37 42
25 23 21 16 10 8 11 16 15 24 37 41 47 32 25 10 3 6 21 17 12 7 13 14 9 8 22 18 31 28 25 20 19 16 21 21 14 8 14 10 13 7 3 1 4 8 13 17 22 27 27 32 41 43
Wind_Direction_500mb
356 349 350 352 355 352 353 352 354 359 2 1 356 7 13 13 17 38 40 15 7 326 352 16 12 346 341 323 329 344 344 11 343 354 345 314 353 34 9 342 348 147 233 268 306 167 3 329 38 59 144 89 79 82
349 344 356 356 358 354 348 346 347 350 355 1 357 353 360 5 343 336 356 2 350 288 312 344 337 316 321 325 351 27 126 355 4 8 355 320 350 29 354 19 332 27 338 129 54 94 107 64 90 92 81 78 80 69
341 344 351 355 354 352 349 344 342 342 344 349 355 354 345 350 355 35 38 15 2 325 309 309 46 341 354 1 352 65 25 94 66 358 311 314 332 56 23 70 5 344 349 69 94 39 31 20 79 75 63 54 41 44
331 341 346 345 346 351 350 347 342 337 334 334 341 344 338 337 354 224 345 22 346 306 294 274 336 347 357 358 350 322 78 45 49 126 17 321 317 323 155 141 103 315 331 359 82 22 46 29 23 25 36 22 17 27
318 329 341 341 342 344 344 344 334 329 326 322 326 333 334 334 332 335 279 53 298 330 312 302 309 1 356 337 342 337 17 193 212 190 184 233 263 317 332 106 47 27 15 24 46 3 348 344 350 357 359 358 333 334
309 318 329 335 340 341 338 340 334 319 311 316 316 325 324 327 317 0 78 235 353 285 299 293 227 348 353 341 312 320 308 305 282 250 254 91 22 5 330 73 42 42 36 25 358 334 318 314 316 318 332 338 327 314
301 307 319 327 333 338 343 343 343 339 324 316 315 320 318 306 286 219 231 261 306 215 264 281 278 253 357 350 322 332 346 360 345 306 33 97 15 348 22 63 37 25 22 28 11 359 350 327 309 289 282 284 290 290
291 299 308 320 327 334 341 344 344 347 343 334 322 318 310 296 242 302 286 285 292 222 253 276 184 227 93 3 328 334 334 349 333 350 18 5 29 22 77 98 57 5 10 9 1 358 339 320 327 299 284 275 284 272
279 287 297 314 323 329 337 339 343 341 334 331 332 328 344 140 124 272 308 293 235 202 296 247 169 220 152 184 276 0 313 319 297 22 139 291 19 118 125 112 66 26 34 353 349 358 348 346 337 326 308 282 284 276
293 270 284 300 315 329 336 343 342 334 333 329 328 353 316 243 290 310 324 82 210 207 224 255 107 14 183 132 288 294 273 246 236 245 171 102 275 176 200 179 119 75 40 2 351 350 344 345 346 333 320 300 281 280
281 264 277 292 307 325 332 331 333 326 327 342 344 277 297 298 305 282 253 205 197 220 218 222 196 193 167 175 185 187 188 301 335 225 156 201 241 180 161 202 198 199 101 358 342 346 349 340 340 336 319 291 293 281
271 264 273 278 294 315 323 327 327 326 318 300 280 288 296 298 238 247 204 89 278 253 262 201 164 156 131 140 237 167 228 214 243 167 191 189 159 160 185 197 194 196 194 309 356 349 355 350 345 344 338 326 300 295
272 263 270 276 289 301 309 315 321 324 322 319 301 255 230 213 246 229 202 122 251 217 234 195 148 151 143 180 202 235 236 237 236 179 177 163 143 152 162 181 194 204 224 224 305 308 353 3 358 358 354 354 2 30
277 272 265 275 286 295 305 308 321 322 314 237 229 260 221 209 236 162 139 192 226 259 261 207 206 187 180 172 223 217 228 268 251 321 113 145 157 164 179 184 129 141 234 222 212 241 322 7 23 24 12 14 6 354
270 280 263 271 283 292 296 308 315 311 247 244 258 245 229 247 103 145 298 269 304 266 261 266 168 200 174 208 203 343 255 236 293 123 112 145 156 161 167 154 125 112 30 274 245 220 260 297 342 41 57 57 35 13
264 268 263 267 281 289 297 313 312 294 239 224 245 276 287 291 168 202 225 246 321 311 320 256 191 205 199 199 198 202 163 232 242 117 140 153 159 167 171 170 154 185 260 290 320 260 260 287 258 276 320 13 41 43
260 253 256 257 273 287 300 308 297 239 235 238 237 249 259 272 274 246 197 230 248 236 236 215 217 205 216 266 217 157 182 207 155 141 151 160 166 176 184 199 185 200 264 295 312 285 271 279 268 256 271 283 283 311
247 253 244 254 276 299 298 272 236 247 250 251 255 269 276 279 297 181 175 321 250 203 192 270 298 216 218 257 355 145 119 114 143 145 150 157 165 180 194 206 219 217 249 285 307 320 298 250 291 292 275 283 268 285
241 239 237 248 262 286 277 261 228 263 252 271 270 275 282 288 292 276 245 213 215 230 149 41 302 39 321 330 353 71 149 150 144 155 168 175 174 186 199 214 223 241 254 262 264 278 273 277 282 283 299 271 268 333
236 220 213 237 260 265 263 251 237 259 272 286 290 285 280 272 281 284 253 225 197 222 199 178 115 185 233 273 351 89 117 139 147 170 170 169 177 190 203 210 232 255 269 270 263 245 311 321 269 258 271 334 23 136
218 210 229 239 260 227 260 253 250 257 283 275 284 301 283 290 293 290 180 226 158 194 289 207 208 225 221 196 139 144 122 135 86 105 165 172 184 189 203 194 202 261 262 276 140 238 312 288 318 349 29 46 347 297
201 223 230 234 223 231 257 240 250 288 271 272 295 240 250 256 267 302 249 7 136 239 259 289 280 176 168 147 157 162 164 147 100 99 140 155 174 189 212 224 222 268 24 345 326 298 270 238 271 298 283 316 292 270
218 218 211 209 209 224 257 243 248 248 262 284 305 266 1 343 51 16 299 156 188 195 258 260 199 168 158 168 167 160 173 158 166 188 173 209 205 190 202 208 210 219 211 113 356 237 221 331 354 32 298 308 301 287
217 188 203 213 208 256 242 244 239 263 273 256 256 311 242 256 186 167 251 258 107 149 158 160 161 148 149 155 161 134 140 162 168 158 184 184 202 176 155 150 168 211 241 218 210 215 265 223 296 307 253 291 304 326
187 211 203 220 213 222 226 226 213 240 250 248 291 266 201 199 232 72 314 261 172 185 176 182 165 165 176 181 196 208 190 183 211 201 206 197 178 210 193 196 213 219 210 211 223 195 199 270 271 260 296 282 275 306
211 204 197 203 203 213 207 251 215 228 282 280 271 319 301 119 106 208 257 256 281 200 181 183 190 197 215 215 208 202 218 227 253 244 188 177 205 215 297 210 210 199 193 193 200 230 231 260 267 277 287 296 282 291
237 218 218 215 225 201 246 259 273 271 254 276 295 274 272 79 143 211 251 298 160 167 163 171 188 196 199 239 181 192 219 204 133 121 134 133 98 114 303 335 90 138 174 170 157 217 251 295 304 307 313 314 311 319
234 235 210 196 202 216 261 243 230 215 238 245 260 270 23 352 256 235 235 142 137 139 153 169 184 169 164 156 151 135 140 133 121 113 84 132 176 223 244 259 280 236 207 165 161 178 200 282 270 282 295 303 310 313
229 222 211 206 204 211 211 216 226 213 218 205 236 276 169 217 252 249 208 147 158 150 164 167 174 154 144 146 157 154 144 144 139 141 210 228 219 208 211 229 302 26 205 247 91 209 13 43 51 300 279 285 298 323
240 227 202 220 201 215 222 216 246 260 255 240 226 269 276 266 268 277 190 164 160 183 181 181 176 179 171 157 160 160 158 175 185 215 220 227 41 172 168 190 215 172 174 252 279 270 276 354 337 325 318 326 330 321
251 223 223 231 247 247 257 268 276 279 273 270 260 235 252 258 274 256 194 149 172 212 193 191 179 167 205 185 175 172 180 187 191 194 165 118 149 159 182 194 199 202 211 243 285 299 288 318 325 321 321 340 339 340
220 230 234 227 252 287 263 260 273 269 276 280 278 278 253 244 220 216 164 173 213 242 200 153 182 212 219 191 189 179 178 183 197 200 187 174 196 224 225 169 176 190 211 242 265 282 285 292 304 324 342 338 335 336
224 235 234 257 237 226 215 214 240 251 254 247 251 238 201 199 6 304 224 225 220 242 196 175 188 211 165 162 171 166 163 177 193 200 177 196 206 150 148 183 193 193 236 107 307 321 325 333 337 333 336 329 339 340
Wind_Speed_850mb
43 42 45 42 37 34 33 36 37 37 39 38 27 26 25 18 15 18 25 31 20 13 9 16 19 16 14 22 8 18 11 14 10 4 7 7 7 12 7 11 12 6 3 6 6 4 1 50 15 11 10 30 29 35
40 41 46 42 43 39 35 33 35 36 35 37 30 24 23 22 13 15 10 18 12 16 18 12 13 10 21 22 21 17 3 5 7 6 7 6 5 5 9 10 28 7 7 7 9 9 19 46 42 39 28 26 35 33
36 41 40 43 45 45 41 37 33 34 35 33 31 28 25 22 18 7 17 34 30 13 22 6 9 19 12 17 14 3 9 4 7 2 9 4 5 4 8 4 15 35 44 7 12 19 25 45 33 32 30 27 26 23
33 36 39 39 43 47 40 44 40 35 32 32 30 28 27 24 23 8 9 12 19 16 8 4 12 14 17 12 13 10 13 11 1 7 4 5 6 10 5 14 10 8 13 9 17 42 17 32 38 37 29 23 21 15
33 33 37 40 41 46 47 52 42 39 36 30 30 28 25 23 16 13 5 9 14 6 8 17 10 13 13 13 14 13 5 9 14 9 7 7 9 7 4 9 17 29 16 9 6 27 21 24 40 30 27 22 28 28
34 35 35 39 43 46 51 56 55 44 36 32 29 30 26 22 16 5 6 12 7 4 7 5 5 9 12 9 15 13 15 15 21 14 8 9 14 21 4 6 17 28 26 24 14 32 29 27 32 23 29 30 30 31
37 36 36 39 42 45 50 53 52 40 31 29 28 31 30 21 14 7 8 9 20 7 6 7 4 2 7 6 12 17 20 21 16 11 9 12 12 23 6 5 13 16 23 24 31 33 19 27 36 40 36 30 30 28
41 38 35 38 41 43 47 51 41 36 31 28 32 34 22 20 4 6 11 10 13 9 10 5 4 2 3 2 7 8 11 12 11 11 11 13 10 12 6 12 9 13 20 28 50 38 32 39 33 33 43 45 46 45
44 43 37 35 38 41 44 47 44 37 30 36 31 20 5 4 1 9 24 26 12 11 8 5 3 2 6 4 6 5 5 1 7 1 1 2 5 0 7 14 8 9 15 24 38 46 47 44 44 33 30 38 38 41
44 41 37 33 33 38 43 50 46 35 34 31 20 8 5 5 11 38 6 0 6 9 10 9 3 2 13 6 2 1 4 4 3 4 6 4 3 10 9 10 6 5 13 18 26 34 39 46 49 44 41 38 39 46
40 37 34 31 30 35 41 45 40 36 29 16 12 5 15 22 17 4 6 10 12 9 14 14 18 12 11 7 5 13 3 2 1 6 7 6 4 7 16 12 12 9 6 7 13 21 28 31 37 37 34 36 30 31
39 35 33 33 32 39 45 43 41 36 25 22 26 37 13 6 5 9 6 3 2 6 8 7 23 24 12 7 6 12 5 5 9 23 6 5 5 24 17 20 25 13 8 5 18 27 30 28 30 28 26 18 16 22
37 38 36 37 35 38 42 39 39 39 37 13 3 5 7 9 6 10 12 5 4 10 12 16 15 16 9 13 9 5 6 8 9 9 9 5 36 25 13 10 20 25 21 13 7 14 19 28 27 28 27 23 13 6
36 42 38 36 31 35 41 33 39 38 12 5 8 8 9 9 9 2 11 11 24 20 20 24 14 19 13 10 11 8 7 6 6 3 5 12 34 32 20 11 15 6 16 21 17 11 9 15 27 28 21 18 17 15
35 33 38 35 30 35 31 32 38 25 7 8 10 8 12 21 6 18 8 8 3 26 38 26 14 17 11 7 7 3 5 6 4 1 7 39 32 26 18 13 11 6 3 6 12 19 13 7 9 22 36 36 26 16
31 34 38 27 24 23 27 34 32 15 6 9 13 12 24 28 13 15 14 3 16 31 29 16 10 7 9 7 11 11 4 5 4 7 46 46 34 25 17 15 10 4 3 3 7 14 17 14 13 12 8 13 21 33
27 37 31 23 24 21 26 32 15 7 10 10 17 24 38 45 47 27 29 9 14 25 7 7 6 8 6 5 7 8 9 7 20 40 47 44 36 26 19 15 11 6 4 7 11 12 19 15 11 16 23 18 17 4
33 30 28 21 20 20 26 11 7 8 14 21 16 28 31 38 42 24 13 30 19 18 10 4 4 4 5 7 3 4 28 31 41 46 45 34 27 23 22 16 14 9 8 13 13 8 22 21 20 19 21 21 17 16
30 34 30 18 16 12 7 6 8 9 21 22 30 40 37 47 46 28 29 18 31 12 7 6 8 6 6 18 12 15 35 36 47 43 30 25 25 24 17 14 15 17 19 21 18 14 8 16 17 15 19 25 16 11
30 25 19 19 15 5 7 7 9 12 12 13 30 37 32 34 46 39 28 23 32 29 12 9 6 10 21 28 13 11 22 27 33 35 35 34 24 24 19 15 13 12 22 28 26 20 12 18 22 21 8 7 8 7
26 28 20 22 18 16 10 7 11 12 18 15 38 28 20 37 36 28 12 1 11 14 8 7 24 8 11 11 7 11 18 15 12 23 30 38 17 27 26 15 10 4 15 16 9 4 9 4 4 5 15 2 9 5
19 20 22 21 11 8 11 14 11 15 13 21 25 14 15 14 20 16 5 9 11 20 31 28 9 29 21 13 13 12 19 15 15 16 15 16 22 24 12 18 16 8 7 7 1 4 11 10 8 18 9 12 10 5
16 14 10 11 10 10 9 9 8 8 8 11 21 9 7 14 11 25 10 6 10 17 16 14 27 25 27 20 16 13 11 22 13 14 13 8 18 19 9 11 10 8 4 1 6 6 5 11 11 6 3 9 9 14
14 10 9 8 15 6 6 7 9 9 9 10 7 8 3 5 4 14 6 4 3 16 21 28 36 31 20 23 15 11 11 20 11 18 15 7 13 18 15 10 9 7 6 8 5 3 5 5 8 13 16 7 12 12
7 10 9 9 11 8 7 6 8 8 8 10 20 13 9 16 5 4 4 6 14 18 31 37 30 24 25 20 26 22 15 17 18 29 12 16 6 13 15 14 15 15 8 11 9 10 8 6 9 8 11 14 13 18
6 14 16 15 9 9 8 5 8 8 6 7 7 17 14 3 5 5 5 18 22 25 38 35 34 29 19 25 17 35 25 12 11 15 19 15 8 4 3 9 10 19 14 11 10 6 6 8 10 12 17 18 16 18
7 13 15 19 9 7 9 13 14 8 6 6 6 4 7 4 2 9 21 13 19 47 30 25 26 25 16 11 7 11 28 13 12 24 18 10 4 2 1 2 9 16 10 7 4 5 5 6 9 12 13 14 18 20
16 11 18 18 15 17 6 6 6 7 7 4 7 6 7 7 7 8 11 16 26 21 23 26 21 16 13 20 23 24 14 11 12 12 8 7 8 7 12 11 9 11 12 13 12 8 6 9 13 10 11 15 15 21
15 19 23 23 15 15 20 14 13 19 13 8 2 4 19 26 37 37 18 21 24 25 31 24 31 25 25 25 18 28 17 16 17 8 5 11 21 18 14 9 5 5 4 2 3 6 4 13 7 3 12 22 24 26
23 29 15 17 12 13 18 26 22 23 24 25 31 37 42 36 21 18 4 19 14 23 21 28 32 29 35 33 28 21 18 18 9 11 10 3 7 20 14 12 8 2 6 8 13 12 6 10 12 21 27 33 38 33
11 11 14 20 10 19 32 37 35 36 41 49 44 51 50 37 18 13 6 7 10 11 19 25 27 20 29 37 36 29 26 22 24 20 10 8 9 9 8 9 8 6 6 4 5 11 9 13 19 25 28 27 33 41
16 18 10 7 8 16 13 15 10 22 32 30 39 41 23 16 8 6 10 11 7 8 8 3 15 23 21 27 26 21 16 35 30 22 14 16 13 9 7 9 9 8 5 4 5 7 11 15 25 22 27 31 37 42
25 23 21 16 10 8 11 16 15 24 37 41 47 32 25 10 3 6 21 17 12 7 13 14 9 8 22 18 31 28 25 20 19 16 21 21 14 8 14 10 13 7 3 1 4 8 13 17 22 27 27 32 41 43
Wind_Direction_850mb
356 349 350 352 355 352 353 352 354 359 2 1 356 7 13 13 17 38 40 15 7 326 352 16 12 346 341 323 329 344 344 11 343 354 345 314 353 34 9 342 348 147 233 268 306 167 3 329 38 59 144 89 79 82
349 344 356 356 358 354 348 346 347 350 355 1 357 353 360 5 343 336 356 2 350 288 312 344 337 316 321 325 351 27 126 355 4 8 355 320 350 29 354 19 332 27 338 129 54 94 107 64 90 92 81 78 80 69
341 344 351 355 354 352 349 344 342 342 344 349 355 354 345 350 355 35 38 15 2 325 309 309 46 341 354 1 352 65 25 94 66 358 311 314 332 56 23 70 5 344 349 69 94 39 31 20 79 75 63 54 41 44
331 341 346 345 346 351 350 347 342 337 334 334 341 344 338 337 354 224 345 22 346 306 294 274 336 347 357 358 350 322 78 45 49 126 17 321 317 323 155 141 103 315 331 359 82 22 46 29 23 25 36 22 17 27
318 329 341 341 342 344 344 344 334 329 326 322 326 333 334 334 332 335 279 53 298 330 312 302 309 1 356 337 342 337 17 193 212 190 184 233 263 317 332 106 47 27 15 24 46 3 348 344 350 357 359 358 333 334
309 318 329 335 340 341 338 340 334 319 311 316 316 325 324 327 317 0 78 235 353 285 299 293 227 348 353 341 312 320 308 305 282 250 254 91 22 5 330 73 42 42 36 25 358 334 318 314 316 318 332 338 327 314
301 307 319 327 333 338 343 343 343 339 324 316 315 320 318 306 286 219 231 261 306 215 264 281 278 253 357 350 322 332 346 360 345 306 33 97 15 348 22 63 37 25 22 28 11 359 350 327 309 289 282 284 290 290
291 299 308 320 327 334 341 344 344 347 343 334 322 318 310 296 242 302 286 285 292 222 253 276 184 227 93 3 328 334 334 349 333 350 18 5 29 22 77 98 57 5 10 9 1 358 339 320 327 299 284 275 284 272
279 287 297 314 323 329 337 339 343 341 334 331 332 328 344 140 124 272 308 293 235 202 296 247 169 220 152 184 276 0 313 319 297 22 139 291 19 118 125 112 66 26 34 353 349 358 348 346 337 326 308 282 284 276
293 270 284 300 315 329 336 343 342 334 333 329 328 353 316 243 290 310 324 82 210 207 224 255 107 14 183 132 288 294 273 246 236 245 171 102 275 176 200 179 119 75 40 2 351 350 344 345 346 333 320 300 281 280
281 264 277 292 307 325 332 331 333 326 327 342 344 277 297 298 305 282 253 205 197 220 218 222 196 193 167 175 185 187 188 301 335 225 156 201 241 180 161 202 198 199 101 358 342 346 349 340 340 336 319 291 293 281
271 264 273 278 294 315 323 327 327 326 318 300 280 288 296 298 238 247 204 89 278 253 262 201 164 156 131 140 237 167 228 214 243 167 191 189 159 160 185 197 194 196 194 309 356 349 355 350 345 344 338 326 300 295
272 263 270 276 289 301 309 315 321 324 322 319 301 255 230 213 246 229 202 122 251 217 234 195 148 151 143 180 202 235 236 237 236 179 177 163 143 152 162 181 194 204 224 224 305 308 353 3 358 358 354 354 2 30
277 272 265 275 286 295 305 308 321 322 314 237 229 260 221 209 236 162 139 192 226 259 261 207 206 187 180 172 223 217 228 268 251 321 113 145 157 164 179 184 129 141 234 222 212 241 322 7 23 24 12 14 6 354
270 280 263 271 283 292 296 308 315 311 247 244 258 245 229 247 103 145 298 269 304 266 261 266 168 200 174 208 203 343 255 236 293 123 112 145 156 161 167 154 125 112 30 274 245 220 260 297 342 41 57 57 35 13
264 268 263 267 281 289 297 313 312 294 239 224 245 276 287 291 168 202 225 246 321 311 320 256 191 205 199 199 198 202 163 232 242 117 140 153 159 167 171 170 154 185 260 290 320 260 260 287 258 276 320 13 41 43
260 253 256 257 273 287 300 308 297 239 235 238 237 249 259 272 274 246 197 230 248 236 236 215 217 205 216 266 217 157 182 207 155 141 151 160 166 176 184 199 185 200 264 295 312 285 271 279 268 256 271 283 283 311
247 253 244 254 276 299 298 272 236 247 250 251 255 269 276 279 297 181 175 321 250 203 192 270 298 216 218 257 355 145 119 114 143 145 150 157 165 180 194 206 219 217 249 285 307 320 298 250 291 292 275 283 268 285
241 239 237 248 262 286 277 261 228 263 252 271 270 275 282 288 292 276 245 213 215 230 149 41 302 39 321 330 353 71 149 150 144 155 168 175 174 186 199 214 223 241 254 262 264 278 273 277 282 283 299 271 268 333
236 220 213 237 260 265 263 251 237 259 272 286 290 285 280 272 281 284 253 225 197 222 199 178 115 185 233 273 351 89 117 139 147 170 170 169 177 190 203 210 232 255 269 270 263 245 311 321 269 258 271 334 23 136
218 210 229 239 260 227 260 253 250 257 283 275 284 301 283 290 293 290 180 226 158 194 289 207 208 225 221 196 139 144 122 135 86 105 165 172 184 189 203 194 202 261 262 276 140 238 312 288 318 349 29 46 347 297
201 223 230 234 223 231 257 240 250 288 271 272 295 240 250 256 267 302 249 7 136 239 259 289 280 176 168 147 157 162 164 147 100 99 140 155 174 189 212 224 222 268 24 345 326 298 270 238 271 298 283 316 292 270
218 218 211 209 209 224 257 243 248 248 262 284 305 266 1 343 51 16 299 156 188 195 258 260 199 168 158 168 167 160 173 158 166 188 173 209 205 190 202 208 210 219 211 113 356 237 221 331 354 32 298 308 301 287
217 188 203 213 208 256 242 244 239 263 273 256 256 311 242 256 186 167 251 258 107 149 158 160 161 148 149 155 161 134 140 162 168 158 184 184 202 176 155 150 168 211 241 218 210 215 265 223 296 307 253 291 304 326
187 211 203 220 213 222 226 226 213 240 250 248 291 266 201 199 232 72 314 261 172 185 176 182 165 165 176 181 196 208 190 183 211 201 206 197 178 210 193 196 213 219 210 211 223 195 199 270 271 260 296 282 275 306
211 204 197 203 203 213 207 251 215 228 282 280 271 319 301 119 106 208 257 256 281 200 181 183 190 197 215 215 208 202 218 227 253 244 188 177 205 215 297 210 210 199 193 193 200 230 231 260 267 277 287 296 282 291
237 218 218 215 225 201 246 259 273 271 254 276 295 274 272 79 143 211 251 298 160 167 163 171 188 196 199 239 181 192 219 204 133 121 134 133 98 114 303 335 90 138 174 170 157 217 251 295 304 307 313 314 311 319
234 235 210 196 202 216 261 243 230 215 238 245 260 270 23 352 256 235 235 142 137 139 153 169 184 169 164 156 151 135 140 133 121 113 84 132 176 223 244 259 280 236 207 165 161 178 200 282 270 282 295 303 310 313
229 222 211 206 204 211 211 216 226 213 218 205 236 276 169 217 252 249 208 147 158 150 164 167 174 154 144 146 157 154 144 144 139 141 210 228 219 208 211 229 302 26 205 247 91 209 13 43 51 300 279 285 298 323
240 227 202 220 201 215 222 216 246 260 255 240 226 269 276 266 268 277 190 164 160 183 181 181 176 179 171 157 160 160 158 175 185 215 220 227 41 172 168 190 215 172 174 252 279 270 276 354 337 325 318 326 330 321
251 223 223 231 247 247 257 268 276 279 273 270 260 235 252 258 274 256 194 149 172 212 193 191 179 167 205 185 175 172 180 187 191 194 165 118 149 159 182 194 199 202 211 243 285 299 288 318 325 321 321 340 339 340
220 230 234 227 252 287 263 260 273 269 276 280 278 278 253 244 220 216 164 173 213 242 200 153 182 212 219 191 189 179 178 183 197 200 187 174 196 224 225 169 176 190 211 242 265 282 285 292 304 324 342 338 335 336
224 235 234 257 237 226 215 214 240 251 254 247 251 238 201 199 6 304 224 225 220 242 196 175 188 211 165 162 171 166 163 177 193 200 177 196 206 150 148 183 193 193 236 107 307 321 325 333 337 333 336 329 339 340